Orbital elements:
    C/2002 E2 (Snyder-Murakami)
Epoch 2002 Feb. 15.0 TT = JDT 2452320.5
T 2002 Feb. 21.77365 TT                                 MPC
q   1.4662704            (2000.0)            P               Q
z  -0.0000784      Peri.    9.01855     -0.43025797     +0.02769922
 +/-0.0000717      Node   244.57806     -0.87795067     -0.24531371
e   1.0001150      Incl.   92.54395     -0.20995404     +0.96904795
Residuals in seconds of arc
020308 862 (5.9-  7.7+)Y  020319 379  0.5-  0.1-    020401 340  0.1+  0.3-
020312 557  0.6-  0.1-    020319 379  0.4-  0.0     020401 349  0.6+  0.1+
020312 557  0.4-  0.2-    020319 379  0.8-  0.6-    020401 340  0.5+  0.1-
020312 557  0.4-  0.0     020319 379  0.1+  0.6-    020401 340  0.2+  0.5-
020312 046  0.8-  1.9-    020319 379  0.3-  0.4+    020401 379  0.2+  0.3-
020312 046 (2.1-  1.0-)   020320 620 (1.1-  2.5-)   020401 379  0.6+  0.2+
020312 046  0.1+  0.5+    020320 620 (1.0-  2.5-)   020402 379  1.2+  0.4+
020312 046  0.8+  0.9+    020320 620 (1.0-  2.5-)   020402 379  0.8+  0.6+
020312 046  0.1-  0.3+    020320 933 (1.5-  2.1-)   020402 379  0.4+  0.3-
020312 046  1.4-  1.0+    020320 933 (2.8-  0.7+)   020402 379  0.7+  0.2+
020312 046  1.3-  0.1+    020320 933 (4.3-  1.0-)   020402 071  0.5+  0.4+
020312 046  1.4-  0.3+    020320 933 (2.8-  0.2+)   020403 071  0.6+  0.0
020312 046 (0.8+  2.1+)   020320 933 (4.6-  0.5-)   020403 071  1.8+  0.5+
020312 046  0.9+  1.9+    020320 933 (4.3-  0.6-)   020403 071  0.6+  0.5+
020312 046  0.7-  0.8-    020320 933 (5.7-  0.5-)   020404 372  0.5-  0.5+
020312 046  1.5-  1.4+    020320 933 (3.8-  0.3+)   020404 349  0.1+  0.3-
020312 046  1.9-  1.9+    020320 933 (3.7-  2.0-)   020404 349  0.0   0.2-
020312 921  0.8-  0.5-    020320 933 (4.7-  1.0-)   020404 349  0.1+  0.4-
020312 921  0.0   0.9-    020320 933 (3.9-  1.5-)   020404 349  0.4-  0.5-
020312 921  0.7-  0.9-    020320 933 (4.8-  3.3-)   020405 452  0.3+  0.3-
020312 921 (0.9-  2.4-)   020320 933 (2.1-  0.1+)   020405 452 (0.1-  7.2-)
020312 921 (0.8+  2.1-)   020320 933 (2.9-  0.2-)   020405 452  0.9-  0.4+
020312 300  0.2-  0.4-    020320 933 (4.5-  2.1-)   020405 850  1.4+  0.3+
020312 300  0.7-  0.0     020320 933 (3.8-  0.3+)   020405 850  0.4+  0.0
020312 349  0.1+  0.1+    020320 933 (3.1-  0.0 )   020405 349  0.0   0.1-
020312 349  0.1+  0.1+    020320 933 (4.2-  0.5-)   020405 349  0.2-  0.1-
020312 349  0.1-  0.1-    020320 933 (4.5-  0.7+)   020405 349  0.2-  0.0
020312 422  1.0+  0.2+    020320 933 (5.2-  1.4-)   020405 349  0.2-  0.2-
020312 422  0.8+  0.1+    020320 933 (5.3-  1.2-)   020405 340  0.5-  0.6-
020312 349  0.1+  0.4+    020320 933 (4.8-  1.7-)   020405 300  0.2-  0.1+
020312 422  0.9+  0.1+    020320 933 (2.1-  1.5-)   020405 300  0.1+  0.3-
020312 422  0.8+  0.2+    020320 933 (5.3-  1.7-)   020405 300  0.2-  0.2+
020312 896  0.9+  0.1-    020320 933 (4.5-  3.1-)   020405 340  0.1-  0.1-
020312 896  1.6+  0.3-    020320 933 (3.9-  0.9+)   020405 300  0.3-  0.5-
020312 340  0.2+  0.2+    020320 933 (4.2-  0.6-)   020405 340  0.1+  0.0
020312 340  0.4+  0.1+    020320 933 (3.7-  0.9-)   020405 340  0.1-  0.3+
020312 896  1.4+  0.6+    020320 933 (5.2-  1.4-)   020405 611  1.6-  1.2-
020312 340  0.4+  0.0     020320 933 (5.4-  1.3-)   020405 611  0.8-  0.5+
020312 340  0.3+  0.0     020320 933 (4.2-  0.9-)   020406 213  0.3-  0.9+
020312 340  0.5+  0.2+    020320 933 (5.1-  0.8-)   020406 213  0.7-  0.7+
020312 340  0.1+  0.3+    020320 933 (3.8-  0.1-)   020406 213  0.3-  1.0+
020312 300  0.1-  0.4+    020320 933 (5.8-  1.0-)   020409 379  0.1+  0.5-
020312 300  0.1-  0.5+    020320 933 (6.0-  0.9-)   020409 379  0.3-  0.4-
020312 300  0.0   0.6+    020320 933 (4.4-  1.3-)   020409 379  0.9+  0.8+
020312 300  0.4+  0.1-    020320 933 (5.5-  2.6-)   020409 379  0.5+  0.1+
020312 340  0.6+  0.4+    020320 933 (5.5-  1.8-)   020409 379  0.9+  0.2-
020312 340  0.2+  0.7+    020320 933 (3.3-  2.7-)   020409 379  1.0+  0.2-
020312 340  0.3+  0.2+    020320 933 (5.1-  2.5-)   020409 379  0.3-  0.0
020312 340  0.4+  0.5+    020320 933 (3.7-  1.0-)   020409 379  0.1-  0.0
020312 345  0.3-  0.2+    020320 933 (0.5-  7.8-)   020409 379  0.6+  0.1-
020312 345  0.7+  0.5-    020320 933 (2.0-  1.8-)   020412 452  0.4+  0.2+
020312 345  0.3-  0.2+    020320 933 (3.1-  1.5-)   020412 452  0.2+  0.4+
020312 345  1.0-  0.4-    020320 933 (3.7-  2.7-)   020412 452  0.4-  0.3-
020312 345  0.3-  0.3-    020320 933 (3.9-  0.4-)   020412 340  0.8+  0.1-
020312 345  0.4+  0.5-    020320 933 (5.7-  1.2-)   020412 340  0.6+  0.1-
020313 118  0.7+  0.2+    020320 933 (6.5-  1.9-)   020412 340  0.6+  0.5+
020313 118  0.4+  0.5+    020320 933 (4.2-  1.4-)   020412 340  0.1+  0.0
020313 118  0.1+  0.6+    020320 933 (4.4-  1.2-)   020412 349  0.3+  0.4+
020313 118  0.2+  0.5+    020320 933 (5.0-  2.5-)   020412 349  0.1+  0.4+
020313 118  0.5+  0.7+    020320 933 (3.1-  1.3-)   020412 349  0.1-  0.2+
020313 620  0.5-  0.3+    020320 933 (5.7-  2.3-)   020412 349  0.1+  0.2+
020313 620  0.5-  0.4+    020320 933 (6.5-  1.9-)   020412 352  0.2-  1.1+
020313 620  0.3-  0.4+    020320 933 (5.7-  1.1-)   020412 352  1.1-  0.7-
020313 844  0.3-  0.5-    020320 933 (5.7-  2.7-)   020413 349  0.4-  0.3+
020313 913  0.2+  1.5+    020320 933 (5.4-  1.8-)   020413 349  0.1+  0.4+
020313 844  1.0-  0.1-    020320 933 (4.8-  3.1-)   020413 349  0.5-  0.4+
020313 844  0.3-  1.7-    020320 933 (2.3-  1.0-)   020413 349  0.5-  0.3+
020313 913  0.3+  0.5+    020320 933 (5.0-  2.1-)   020413 349  0.3-  0.4+
020313 844  0.5-  0.0     020320 933 (3.5-  1.2-)   020413 367  0.2-  0.0
020313 913  1.3-  0.5+    020320 933 (4.7-  1.6-)   020413 367  0.0   0.0
020313 844  0.0   0.3+    020320 933 (4.7-  2.2-)   020413 367  0.2-  0.4+
020313 649  0.4+  0.5+    020320 933  1.7-  0.2-    020417 170  0.4-  0.3+
020313 649  0.0   0.2+    020320 933 (6.3-  0.2-)   020420 213 (0.2-  3.8-)
020313 649  0.1+  0.1+    020320 933 (3.5-  0.7-)   020420 170  0.5-  0.1+
020313 933 (5.2-  2.1-)   020320 933 (4.6-  0.9-)   020420 213 (0.1+  4.1-)
020313 933 (6.1-  2.4-)   020320 933 (4.3-  1.7-)   020420 213 (0.2-  4.4-)
020313 933 (7.3-  3.1-)   020320 933 (6.3-  1.5-)   020420 170  0.5-  0.1-
020313 933 (6.1-  1.8-)   020320 933 (6.0-  0.8-)   020421 445  0.6+  1.1-
020313 933 (5.9-  1.7-)   020320 933 (4.9-  0.5-)   020421 445  0.1+  1.5-
020313 933 (6.9-  2.2-)   020320 933 (6.8-  1.7-)   020421 232 (2.1-  0.4+)
020313 933  0.7-  0.2-    020320 933 (4.9-  1.1-)   020421 201  0.5-  0.1-
020313 933 (7.1-  1.9-)   020320 933 (6.7-  2.4-)   020422 201  0.4+  0.2+
020313 926  0.2+  0.2+    020320 933 (4.7-  1.8-)   020422 201  0.4+  0.3+
020313 926  0.2+  0.0     020320 340  0.1-  0.1-    020422 636  0.3+  0.2+
020313 926  0.3+  0.1+    020320 340  0.6+  0.0     020422 636  0.8+  0.2-
020313 926  0.3+  0.2+    020320 340  0.3-  1.4-    020422 143  0.3+  0.0
020313 926  0.4+  0.0     020320 340  0.4-  0.7-    020422 143  0.3+  0.1+
020313 342  0.5-  0.6+    020320 340  0.1-  1.1-    020422 143  0.2-  0.3-
020313 349  0.0   0.1+    020320 349  0.1-  0.3-    020422 143  0.1-  0.0
020313 300  0.1-  0.5-    020320 300  0.2-  0.6-    020423 349  1.0-  0.3-
020313 349  0.3-  0.1+    020320 300  0.1-  0.5-    020423 349  0.4-  0.6-
020313 300  0.1+  0.7-    020320 300  0.0   0.6-    020423 349  0.9-  0.6-
020313 300  0.2+  0.7-    020320 300  0.2-  0.6-    020423 349  0.8-  0.2-
020313 300  0.2-  0.5-    020320 349  0.4-  0.4-    020423 349  0.8-  0.6-
020313 300  0.2+  0.7-    020320 349  0.1-  0.6-    020424 201  0.5+  0.7+
020313 342  0.8+  0.3+    020320 349  0.0   0.2-    020424 201  0.3+  0.1-
020313 372  0.1-  0.5-    020320 888  0.3-  1.2-    020424 201  0.4-  0.3+
020313 372  0.4-  0.2+    020320 888  0.1-  1.1-    020424 235  0.0   0.7+
020313 367  0.0   0.0     020320 888  0.1-  1.2-    020427 355  1.0-  0.6-
020313 349  0.0   0.0     020320 379  0.7+  0.1+    020427 355  0.1+  0.7-
020313 341  0.0   0.0     020320 379  0.4+  0.6+    020427 355  0.4-  0.6-
020313 367  0.2+  0.3-    020321 159  0.6-  0.3-    020427 379  0.0   0.5-
020313 349  0.2-  0.0     020321 159  1.1-  0.3-    020427 379  0.0   1.8+
020313 341  0.2+  0.2-    020321 159  0.2-  0.2-    020427 349  0.1-  0.1+
020313 367  0.7+  0.2-    020321 159  0.2-  0.4-    020427 349  0.0   0.0
020313 367  0.0   0.2+    020321 159  0.2+  0.4-    020427 349  0.2-  0.1-
020313 341  0.0   0.6-    020321 170  0.6+  0.8+    020427 349  0.1+  0.5-
020313 341  0.2+  0.2-    020321 204  0.1+  0.2+    020428 204  0.3+  0.3+
020313 367  0.6+  0.2-    020321 204  0.0   0.2+    020428 204  0.4+  0.2+
020313 341  0.5+  0.1-    020321 170  0.1+  0.4+    020428 204  0.2+  0.2+
020313 342  0.1+  0.5-    020321 204  0.0   0.2+    020428 204  0.4-  0.9+
020313 897  0.0   0.2+    020321 204  0.1+  0.2+    020428 379  0.4+  0.5-
020313 897  0.1+  0.2+    020323 235 (0.6-  3.3+)   020428 379  0.2-  0.2+
020313 897  0.3-  0.6-    020323 213 (0.2+  3.6+)   020428 379  0.7-  0.1-
020313 360  0.1-  0.5-    020323 170  0.1+  0.1+    020428 379  0.5+  0.3-
020313 360  0.3+  0.3-    020323 213 (0.4+  2.9+)   020429 213  0.2+  0.1+
020313 372  0.1-  0.4+    020323 170  0.0   0.0     020429 213  0.9-  0.4-
020314 118  0.0   0.1+    020323 213  0.7+  0.2+    020429 213  0.9+  0.7-
020314 118  0.1+  0.2-    020323 170  0.6+  0.1-    020430 A46  0.4-  1.2-
020314 118  0.3+  0.1+    020323 213  1.0+  0.1+    020430 A46  0.8-  0.5-
020314 118  0.3+  0.1+    020323 850  0.4-  0.2-    020430 A46  0.6-  0.3-
020315 913 (4.5-  0.0 )   020323 850  0.5+  0.2+    020430 A46  1.0-  0.6-
020315 913 (1.4+  3.1+)   020324 349  0.1-  0.4+    020430 157  0.1-  0.5+
020315 913  0.4-  0.6-    020324 349  0.3+  0.1-    020430 157  0.1+  0.2-
020315 886 (3.3+  2.2-)   020324 349  0.4+  0.3+    020430 157  0.5+  0.1+
020315 886  0.6-  1.1+    020325 613  2.0-  1.5-    020430 157  1.3+  0.9+
020315 349  0.0   0.3+    020325 613  0.1-  0.0     020501 213  0.3+  0.3-
020315 349  0.1+  0.1+    020325 367  0.2+  0.5-    020501 213  0.2+  0.2+
020315 349  0.1+  0.2+    020325 367  0.7+  0.2-    020501 939  0.1-  0.1+
020315 349  0.2+  0.2+    020325 367  0.6+  0.6-    020501 939  0.5-  0.0
020316 152  0.0   0.4+    020325 367  0.1+  0.1-    020501 939  0.7-  0.3-
020316 152  0.1-  0.5+    020325 367  0.3+  0.0     020501 367  0.4-  0.1+
020316 152  0.0   0.7+    020327 342  1.2-  0.3+    020501 367  0.1-  0.3+
020316 049  1.5-  0.3+    020327 355  0.3+  0.1+    020501 367  0.3-  0.2+
020316 049  1.2-  0.4+    020327 342  0.4-  0.7-    020501 235 (0.5+  2.2+)
020316 049  1.2-  0.1+    020327 355  0.2+  0.0     020501 A46  0.5-  0.1-
020316 340  0.8+  1.1-    020327 355  0.2+  0.9+    020501 A46  0.5-  0.2-
020316 340  0.4+  1.2-    020327 349  0.1+  0.3+    020501 A46  1.3-  0.3-
020316 340  0.5-  0.4-    020327 300  0.1-  0.1+    020501 A46  1.3-  0.2-
020316 340  0.4-  0.4-    020327 349  0.7-  0.1-    020502 118  0.1+  0.3+
020316 340  0.0   1.1-    020327 349  0.4-  0.3-    020502 118  0.3+  0.3+
020316 367  0.0   0.1-    020327 349  0.5-  0.2+    020502 118  0.5+  0.4+
020316 367  0.4-  0.0     020327 300  0.2+  0.0     020502 349  0.4-  0.6+
020316 367  0.3+  0.1+    020327 300  0.2-  0.1+    020502 349  0.0   0.2+
020316 349  0.2+  0.2+    020327 300  0.1-  0.1-    020502 349  0.1+  0.0
020316 367  0.5+  0.5-    020327 379  0.0   0.7+    020502 349  0.3-  0.2+
020316 349  0.3+  0.0     020327 372  0.3+  1.1+    020502 349  0.2-  0.4+
020316 888  0.1-  0.0     020327 379  0.6-  0.2+    020502 379  0.3+  0.5-
020316 888  0.1+  0.2+    020327 379  0.6-  0.1+    020502 379  1.3+  0.0
020316 888  0.0   0.1+    020327 379  0.5-  0.3+    020502 379  0.8+  0.1+
020316 888  0.2+  0.1+    020327 379  0.1+  0.0     020502 379  1.5+  0.1+
020316 349  0.0   0.3+    020327 372  0.5+  1.2+    020503 057  0.3-  0.1+
020316 349  0.1+  0.1-    020329 300  0.5-  0.1+    020503 057  1.3-  1.2+
020316 897  0.1+  0.0     020329 300  0.0   0.3-    020503 057 (3.4-  1.7-)
020316 897  0.4+  0.1+    020329 300  0.7-  0.5-    020503 057 (0.9+  2.1-)
020316 897  0.2+  0.1+    020329 300  1.1-  0.2+    020503 057  0.7-  0.1+
020317 152  0.7+  0.7+    020329 300  0.2-  0.3-    020503 057  1.9+  0.5-
020317 152  0.2+  1.0+    020329 300  0.4-  0.7-    020503 057  0.4-  0.7-
020317 152  0.3+  0.9+    020330 340  0.5+  0.0     020505 939  0.1-  0.8+
020317 157  0.6+  0.3-    020330 340  0.5+  0.2+    020505 939  0.1-  1.0+
020317 157  0.6+  0.0     020330 340  1.0+  0.6-    020505 939  0.1+  0.5-
020317 157  0.4+  0.5+    020330 340  0.5+  0.2-    020505 379  0.8+  0.1-
020318 300  0.2-  0.7-    020330 340  0.2+  0.2-    020505 379  0.1+  0.7-
020318 300  0.2-  0.6-    020331 213  1.3+  0.6+    020505 367  0.0   0.3+
020318 300  0.0   0.3-    020331 213  0.1+  0.1+    020505 367  0.3+  0.0
020318 300  0.4-  0.4-    020401 170  0.2-  0.9+    020505 367  0.3+  0.1+
020318 300  0.5-  0.2-    020401 170  0.3+  0.0     020507 A46  0.3-  0.1+
020318 300  0.4-  0.4-    020401 170  1.2-  0.7+    020507 A46  0.4-  0.2-
020318 349  0.0   0.2+    020401 355  0.6+  0.2-    020507 A46  0.4-  0.1-
020318 349  0.3+  0.1+    020401 355  0.5+  0.2-    020507 A46  0.1-  0.5-
020318 349  0.1+  0.1-    020401 355  0.6+  0.0     020509 046  0.5+  0.1-
020318 349  0.2+  0.2+    020401 355  0.3+  0.4+    020509 046  0.5+  0.1+
020318 379  0.7-  0.3-    020401 349  0.9+  0.0     020509 046  0.5+  0.0
020318 379  0.5-  1.1-    020401 340  0.2+  0.1+    020509 046  0.5+  0.0
020318 379  0.3+  0.9-    020401 349  0.7+  0.2-
020319 379  0.3+  0.1+    020401 349  0.5+  0.5+

